Location: Staunton
(38.1490°N, 79.0720°W)
Time: 23:15:56
(UTC-04:00)

ISS - Pass Details

Date: 14 November 2017
Orbit: 402 x 409 km, 51.6° (Epoch: 17 August)

Event Time Altitude Azimuth Distance (km) Brightness Sun altitude
Exits shadow 04:31:35 10° 45° (NE) 1,481 -0.5 -28.5°
Enters shadow 05:29:04 -70° 290° (WNW) 12,453 3.6 -17.3°
Maximum altitude 06:07:24 52° 36° (NE) 505 -3.2 -9.9°
